Regional Weather Roundup
Issued by NWS

Home | Current Version | Previous Version | Graphics & Text | Print | Product List | Glossary On
Versions: 1 2 3 4 5 6 7 8 9 10 11 12 13 14 15 16 17 18 19 20 21 22 23 24 25 26 27 28 29 30 31 32 33 34 35 36 37 38 39 40 41 42 43 44 45 46 47 48 49 50
000
ASUS43 KIND 242159
RWRIN

WEATHER ROUNDUP FOR INDIANA
NATIONAL WEATHER SERVICE INDIANAPOLIS IN
600 PM EDT FRI APR 24 2015

NOTE: "FAIR" INDICATES FEW OR NO CLOUDS BELOW 12,000 FEET WITH NO
SIGNIFICANT WEATHER AND/OR OBSTRUCTIONS TO VISIBILITY.

* - STATION DOES NOT REPORT WEATHER SUCH AS PRECIPITATION OR FOG.

+ - STATION NOT QUALITY CONTROLLED BY THE NATIONAL WEATHER SERVICE.
    USE DATA WITH CAUTION...ESPECIALLY DEWPOINT AND RELATIVE
    HUMIDITY OBSERVATIONS.

INZ001>003-010>013-019-020-242300-
NORTHWEST INDIANA

CITY           SKY/WX    TMP DP  RH WIND       PRES   REMARKS
GARY /AIRPORT/ CLOUDY    52  16  24 E14       29.94F
KNOX *+        PTSUNNY   61 N/A N/A S6        29.93F
RENSSELAER +   CLOUDY    61  23  23 SE7       29.93F

$$

LMZ046-743>745-242300-
SOUTHERN LAKE MICHIGAN

STATION/POSITION TIME  TEMP    WIND        PRES    WAVE
                       AIR SEA DIR/SP/G            HT
                 (UTC) (F)     (DEG/KT/KT) (MB)    (FT)
BURNS HARBOR     2100   48      70/ 15/ 19 1014.2F
MICHIGAN CITY    2100   47      30/ 13/ 15   N/A
5NW MICH CITY    2100   45 44   80/ 12/ 14   N/A     1

$$

INZ004-005-014>016-021>024-242300-
NORTH CENTRAL INDIANA

CITY           SKY/WX    TMP DP  RH WIND       PRES   REMARKS
ELKHART        CLOUDY    57  16  19 S5        29.97S
GOSHEN         CLOUDY    58  22  24 W3        29.96F
SOUTH BEND     CLOUDY    59  22  24 NE5       29.96F
WARSAW +       PTSUNNY   59  23  25 CALM      29.96S

$$

INZ006>009-017-018-025>027-242300-
NORTHEAST INDIANA

CITY           SKY/WX    TMP DP  RH WIND       PRES   REMARKS
ANGOLA *+      SUNNY     59  21  23 NW6       29.96S
FORT WAYNE     PTSUNNY   59  21  23 CALM      29.98F

$$

INZ028-029-035-036-043>045-051>053-242300-
WEST CENTRAL INDIANA

CITY           SKY/WX    TMP DP  RH WIND       PRES   REMARKS
GREENCASTLE +  CLOUDY    59  27  29 SE7       29.94S
LAFAYETTE      CLOUDY    59  25  27 S8        29.94F
TERRE HAUTE    CLOUDY    62  30  29 S10       29.93F

$$

INZ030>032-037>040-046>048-054>057-064-065-242300-
CENTRAL INDIANA

CITY           SKY/WX    TMP DP  RH WIND       PRES   REMARKS
COLUMBUS       CLOUDY    59  18  20 S8        29.97F
FRANKFORT +    CLOUDY    60  28  29 S6        29.97S
GREENWOOD *+   CLOUDY    59  19  21 SE7       29.97S
INDIANAPOLIS   CLOUDY    60  25  26 SE10      29.94F
-EAGLE CREEK   CLOUDY    60  23  24 SE6       29.95S
KOKOMO *+      PTSUNNY   61  25  25 S7        29.96S
MT COMFORT *+  PTSUNNY   61  -6   6 S6        29.96F
SHELBYVILLE    CLOUDY    62  26  25 S9        29.95F

$$

INZ033-034-041-042-049-050-058-059-242300-
EAST CENTRAL INDIANA

CITY           SKY/WX    TMP DP  RH WIND       PRES   REMARKS
MUNCIE         PTSUNNY   60  19  20 SW6       29.97F

$$

INZ060-061-067>069-081>083-085>088-242300-
SOUTHWEST INDIANA

CITY           SKY/WX    TMP DP  RH WIND       PRES   REMARKS
EVANSVILLE     CLOUDY    63  33  32 S6        29.95F
HUNTINGBURG *+ CLOUDY    63  30  29 S9        29.96S

$$

INZ062-063-066-070>080-084-089>092-242300-
SOUTH CENTRAL AND SOUTHEAST INDIANA

CITY           SKY/WX    TMP DP  RH WIND       PRES   REMARKS
BLOOMINGTON    CLOUDY    62  23  22 S9        29.95S
MADISON *+     CLOUDY    61  21  21 S8        29.99S
SEYMOUR +      CLOUDY    63  32  31 SE8       29.97S

$$




USA.gov is the U.S. government's official web portal to all federal, state and local government web resources and services.